Location: Azul
(36.7830°S, 59.8500°W)
Time: 00:56:39
(UTC-03:00)

STARS - Pass Details

Date: 26 October 2021
Orbit: 623 x 638 km, 98.2° (Epoch: 30 November)

Event Time Altitude Azimuth Distance (km) Brightness Sun altitude
Exits shadow 22:24:47 34° 192° (SSW) 1,043 ? -30.7°
Drops below altitude 10° 22:27:20 10° 192° (SSW) 2,031 ? -31.0°
Sets 22:29:33 0° 192° (SSW) 2,945 ? -31.3°
